Voltar ao catálogo

BREEZE-M DEB

AtivoHEO
NORAD 39989·DEBRIS·🇷🇺 Russia

Lançado Mar 14, 2008 de Baikonur Cosmodrome

Loading…

Próximas Passagens (próximas 24 horas)

TLE

AtualizadoSource: Space-Track

Época: Sep 9, 2026, 04:09 UTC

1 39989U 08011DN  26252.17297430  .00000038  00000-0  00000-0 0  9999
2 39989  48.2318 196.0749 5772423  68.5464 341.8789  3.56562676 37360

Acompanhe BREEZE-M DEB em tempo real com AllMySat

Download on the App Store